LDPE-2

Last updated on Thu Nov 21 2024 00:02:45 GMT+0000 (Coordinated Universal Time)

1 54219U 22144A 24325.27377557 -.00000144 00000+0 00000+0 0 9991 2 54219 4.1910 64.8226 0000748 242.3814 102.9227 1.00797808 6053
UTC large
Height (km)
Speed (km/s)
/
Latitude / Longitude
Inclination (degrees)
Orbital Period (minutes)
Azimuth
Elevation
Range (km)
Doppler Factor

Next 0 passes for location: London (51.5072 / 0.1276)

Sorry there are no passes over London.